Location: Brookview Estates
(36.0476°N, 86.6931°W)
Time: 08:52:35
(UTC+00:00)

USA 234 - Pass Details

Date: 30 March 2020
Orbit: 1102 x 1106 km, 123.0° (Epoch: 14 May)

Event Time Altitude Azimuth Distance (km) Brightness Sun altitude
Rises 00:32:39 0° 47° (NE) 3,923 5.8 -6.0°
Reaches altitude 10° 00:35:10 10° 50° (NE) 2,963 5.1 -6.5°
Maximum altitude 00:41:39 62° 131° (SE) 1,233 3.3 -7.8°
Drops below altitude 10° 00:48:05 10° 211° (SSW) 2,954 5.8 -9.1°
Sets 00:50:36 0° 214° (SW) 3,909 6.5 -9.6°
